Martinsburg, WV

3:11 PM EST on November 22, 2019 (GMT -0500)
Eastern W Va Regional-Shepherd

Weather History for KMRB - September, 2019

Change the Weather History Date:

Monday, September 30, 2019

  Actual Average Record
Temperature  
Mean Temperature 66 °F 60 °F  
Max Temperature 69 °F 71 °F 94 °F (1953)
Min Temperature 64 °F 48 °F 32 °F (1951)
Degree Days  
Heating Degree Days 0 7  
Month to date heating degree days 86  
Since 1 July heating degree days 91  
Cooling Degree Days 1 1  
Month to date cooling degree days 93  
Year to date cooling degree days 885  
Growing Degree Days 16 (Base 50)    
Moisture  
Dew Point 64 °F    
Average Humidity 92    
Maximum Humidity 100    
Minimum Humidity 78    
Precipitation  
Precipitation 0.47 in 0.13 in 3.29 in (2010)
Month to date precipitation 3.57  
Year to date precipitation 29.81  
Sea Level Pressure  
Sea Level Pressure 30.21 in    
Wind  
Wind Speed 2 mph ()    
Max Wind Speed 6 mph    
Max Gust Speed -    
Visibility 6.3 miles    
Events Rain    
T = Trace of Precipitation, MM = Missing Value Source: Averaged Metar Reports

Daily Weather History Graph

Daily Weather History Graph

Search for Another Location

Airport or City:

Astronomy

Sep. 30, 2019 Rise Set
Actual Time 7:06 AM EDT 6:56 PM EDT
Civil Twilight 6:40 AM EDT 7:23 PM EDT
Nautical Twilight 6:08 AM EDT 7:54 PM EDT
Astronomical Twilight 5:37 AM EDT 8:25 PM EDT
Moon 9:08 AM EDT (9/30) 8:31 PM EDT (9/30)
Length of Visible Light 12h 43m
Length of Day
11h 49m
Waxing Crescent, 5% of the Moon is Illuminated
Sep 30
Waxing Crescent
Oct 5
First Quarter
Oct 13
Full
Oct 21
Last Quarter
Oct 27
New

Hourly Weather History & Observations

Time (EDT) Temp. Dew Point Humidity Pressure Visibility Wind Dir Wind Speed Gust Speed Precip Events Conditions
12:53 AM 68.0 °F 61.0 °F 78% 30.23 in 10.0 mi Calm Calm - N/A   Mostly Cloudy
1:53 AM 66.9 °F 61.0 °F 81% 30.23 in 10.0 mi Calm Calm - N/A   Mostly Cloudy
2:53 AM 64.9 °F 60.1 °F 84% 30.22 in 10.0 mi Calm Calm - N/A   Scattered Clouds
3:53 AM 66.0 °F 60.1 °F 81% 30.20 in 10.0 mi Calm Calm - N/A   Mostly Cloudy
4:53 AM 66.0 °F 60.1 °F 81% 30.20 in 10.0 mi Calm Calm - N/A   Mostly Cloudy
5:42 AM 66.9 °F 61.0 °F 81% 30.21 in 10.0 mi Calm Calm - N/A   Overcast
5:53 AM 66.9 °F 62.1 °F 84% 30.20 in 10.0 mi Calm Calm - N/A   Overcast
6:53 AM 68.0 °F 64.0 °F 87% 30.22 in 10.0 mi Calm Calm - 0.00 in   Overcast
7:53 AM 68.0 °F 64.0 °F 87% 30.23 in 5.0 mi Calm Calm - 0.00 in Rain Rain
8:32 AM 66.9 °F 64.9 °F 93% 30.25 in 1.8 mi Calm Calm - 0.05 in Rain Heavy Rain
8:42 AM 66.0 °F 64.9 °F 96% 30.25 in 0.8 mi ENE 3.5 mph - 0.22 in Rain Heavy Rain
8:53 AM 64.9 °F 64.0 °F 97% 30.25 in 1.5 mi East 5.8 mph - 0.27 in Rain Rain
8:57 AM 64.9 °F 63.0 °F 93% 30.26 in 3.0 mi ENE 5.8 mph - 0.00 in Rain Light Rain
9:14 AM 64.0 °F 62.1 °F 93% 30.26 in 2.5 mi East 5.8 mph - 0.06 in Rain Rain
9:27 AM 64.0 °F 62.1 °F 93% 30.26 in 4.0 mi East 5.8 mph - 0.08 in Rain Light Rain
9:53 AM 64.0 °F 62.1 °F 93% 30.26 in 6.0 mi ESE 3.5 mph - 0.09 in Rain Light Rain
10:53 AM 64.0 °F 62.1 °F 93% 30.26 in 8.0 mi ESE 3.5 mph - 0.03 in Rain Light Rain
11:07 AM 64.0 °F 62.1 °F 93% 30.26 in 7.0 mi East 5.8 mph - 0.01 in Rain Light Rain
11:53 AM 64.0 °F 62.1 °F 93% 30.25 in 5.0 mi Variable 3.5 mph - 0.08 in Rain Light Rain
12:45 PM 64.9 °F 64.0 °F 97% 30.25 in 10.0 mi East 3.5 mph - 0.00 in   Overcast
12:53 PM 64.9 °F 64.0 °F 97% 30.24 in 10.0 mi East 4.6 mph - 0.00 in   Overcast
1:53 PM 66.9 °F 64.9 °F 93% 30.20 in 10.0 mi East 5.8 mph - N/A   Overcast
2:38 PM 68.0 °F 64.9 °F 90% 30.19 in 10.0 mi SE 4.6 mph - 0.00 in   Overcast
2:53 PM 68.0 °F 64.9 °F 90% 30.18 in 10.0 mi SE 5.8 mph - 0.00 in   Overcast
3:53 PM 68.0 °F 66.0 °F 93% 30.17 in 10.0 mi ESE 4.6 mph - N/A   Overcast
4:53 PM 68.0 °F 66.0 °F 93% 30.16 in 10.0 mi ESE 4.6 mph - N/A   Overcast
5:53 PM 68.0 °F 66.0 °F 93% 30.15 in 4.0 mi SE 4.6 mph - N/A   Overcast
6:04 PM 68.0 °F 66.0 °F 93% 30.16 in 2.5 mi SE 5.8 mph - N/A   Overcast
6:35 PM 66.9 °F 66.0 °F 97% 30.16 in 1.8 mi SE 4.6 mph - N/A   Overcast
6:53 PM 66.9 °F 66.0 °F 97% 30.15 in 2.5 mi SE 4.6 mph - N/A   Overcast
7:02 PM 66.9 °F 66.0 °F 97% 30.16 in 3.0 mi SE 3.5 mph - N/A   Overcast
7:53 PM 66.9 °F 66.0 °F 97% 30.15 in 3.0 mi Calm Calm - N/A   Overcast
8:22 PM 66.9 °F 66.0 °F 97% 30.17 in 4.0 mi Calm Calm - N/A   Overcast
8:53 PM 66.9 °F 66.0 °F 97% 30.17 in 5.0 mi ENE 3.5 mph - N/A   Overcast
9:10 PM 66.9 °F 66.0 °F 97% 30.17 in 4.0 mi Calm Calm - N/A   Overcast
9:31 PM 66.0 °F 66.0 °F 100% 30.17 in 3.0 mi ENE 4.6 mph - N/A   Overcast
9:53 PM 66.9 °F 66.0 °F 97% 30.17 in 4.0 mi Calm Calm - N/A   Overcast
10:53 PM 66.9 °F 66.0 °F 97% 30.17 in 6.0 mi Calm Calm - N/A   Overcast
11:53 PM 66.9 °F 66.0 °F 97% 30.16 in 9.0 mi Calm Calm - N/A   Overcast